Location: Wallasey
(53.4265°N, 3.0662°W)
Time: 22:21:48
(UTC+00:00)

XW-2B - Pass Details

Date: 22 October 2019
Orbit: 507 x 528 km, 97.5° (Epoch: 16 November)

Event Time Altitude Azimuth Distance (km) Brightness Sun altitude
Rises 18:59:51 0° 194° (SSW) 2,634 ? -9.4°
Reaches altitude 10° 19:02:11 10° 207° (SSW) 1,747 ? -9.7°
Maximum altitude 19:05:24 26° 266° (W) 1,042 ? -10.2°
Drops below altitude 10° 19:08:37 10° 324° (NW) 1,751 ? -10.7°
Sets 19:10:58 0° 338° (NNW) 2,640 ? -11.0°
